Regional Weather Roundup
Issued by NWS Mobile, AL

Home | Current Version | Previous Version | Text Only | Print | Product List | Glossary On
Versions: 1 2 3 4 5 6 7 8 9 10 11 12 13 14 15 16 17 18 19 20 21 22 23 24 25 26 27 28 29 30 31 32 33 34 35 36 37 38 39 40 41 42 43 44 45 46 47 48 49 50
695
ASUS44 KMOB 270912
RWRMOB
REGIONAL WEATHER ROUNDUP
NATIONAL WEATHER SERVICE MOBILE AL
400 AM CDT TUE JUN 27 2017

NOTE: "FAIR" INDICATES FEW OR NO CLOUDS BELOW 12,000 FEET WITH NO
      SIGNIFICANT WEATHER AND/OR OBSTRUCTIONS TO VISIBILITY.

  * THESE STATIONS ARE PART OF THE UNIVERSITY OF SOUTH ALABAMA
    MESONET AND ARE NOT UNDER NWS OR FAA QUALITY CONTROL.

ALZ061>064-271000-
COASTAL ALABAMA

CITY           SKY/WX    TMP DP  RH WIND       PRES   REMARKS
MOBILE REG APT CLOUDY    72  61  68 CALM      30.02S
BROOKLEY FIELD CLOUDY    73  66  78 N5        30.02S
USA CAMPUS*      N/A     70  63  78 CALM      30.01S
DOG RIVER*       N/A    N/A N/A N/A MISG        N/A


CITY           SKY/WX    TMP DP  RH WIND       PRES   REMARKS
GULF SHORES    CLOUDY    71  67  87 CALM      29.99F

$$

ALZ051>060-271000-
INTERIOR SOUTHWEST AND SOUTH CENTRAL ALABAMA

CITY           SKY/WX    TMP DP  RH WIND       PRES   REMARKS
GREENVILLE     CLOUDY    70  60  70 CALM      30.03S
EVERGREEN      CLOUDY    67  64  90 CALM      30.03S
ATMORE*        NOT AVBL
ANDALUSIA/OPP  CLOUDY    74  65  73 CALM      30.02S
ANDALUSIA*       N/A     72  66  83 NE3       30.02S
FLORALA APT    CLOUDY    71  66  84 N5        30.03S
FLORALA*         N/A     72  68  88 CALM      30.70S

$$

FLZ001>006-271000-
WESTERN FLORIDA PANHANDLE

CITY           SKY/WX    TMP DP  RH WIND       PRES   REMARKS
PENSACOLA      CLOUDY    77  66  68 NE3       30.00S
NAS PENSACOLA  CLOUDY    73  65  75 CALM      29.99F
MILTON         CLOUDY    71  67  87 N3        30.01S
WHTNG S FIELD  CLOUDY    76  68  76 N5        30.00F


CITY           SKY/WX    TMP DP  RH WIND       PRES   REMARKS
JAY*             N/A     70  66  88 N2        30.02S
DUKE FIELD     CLOUDY    71  68  90 CALM      29.99F
CRESTVIEW      CLOUDY    70  67  90 CALM      30.01F
VALPARAISO     PTCLDY    74  67  79 N6        29.99S
DESTIN         MOCLDY    79  77  94 NE5       29.99S

$$

MSZ076-079-271000-
INTERIOR SOUTHEAST MISSISSIPPI

CITY           SKY/WX    TMP DP  RH WIND       PRES   REMARKS
LEAKESVILLE*   NOT AVBL
AGRICOLA*      NOT AVBL

$$

MARINE OBSERVATIONS

STATION/POSITION TIME  TEMP    WIND        PRES    WAVE
                       AIR SEA DIR/SP/G            HT/PER
                 (UTC) (F)     (DEG/KT/KT) (MB)    (FT/S)
PASCAGOULA       0848   75     350/  6/  7 1016.0S
PETIT BOIS ISLND 0848   78      30/  6/  8 1016.8R
GRAND BAY        0745   74     360/  4     1017.0S
KATRINA CUT      0830   78      40/  9     1015.9F
CEDAR POINT      0830   76      20/  5     1015.6F
E DAUPHIN ISLAND 0800   80      10/ 11/ 12 1015.7F
MIDDLE BAY LIGHT 0830   78      10/ 10     1015.9F
USCG MOBILE BAY  0848   74 80  350/  4/  6 1016.7F
STATE DOCKS      0848   75 79              1016.1F
MEAHER PARK      0830   73     350/  3     1015.6F
FORT MORGAN      0848   80      30/  9/ 11   N/A
12 S ORANGE BCH  0850   79 82   30/ 10/ 10 1015.4S   1
PENSACOLA BAY    0848   77 81              1016.0S
64 S DAUPHIN ISL 0850   81 84  340/  4/  6 1016.1R   1/ 5
67 S FORT MORGAN 0830   81        CALM     1016.3R

$$

SELECTED LOCATIONS ACROSS THE REGION

CITY           SKY/WX    TMP DP  RH WIND       PRES   REMARKS
NEW ORLEANS    CLOUDY    76  74  93 CALM      30.02S
GULFPORT       MOCLDY    72  67  84 NW3       30.01S
PASCAGOULA AP  CLOUDY    70  66  87 CALM      30.01S
PASCAGOULA*    NOT AVBL
HATTIESBURG    CLOUDY    68  65  90 CALM      30.04F
LAUREL         MOCLDY    66  61  82 CALM      30.06S
MERIDIAN       CLOUDY    67  66  97 N3        30.05S
JACKSON        CLOUDY    68  64  87 CALM      30.06S
MONTGOMERY     MOCLDY    71  62  73 CALM      30.04S
TROY           MOCLDY    67  67 100 CALM      30.04S
ASHFORD*         N/A     72  66  83 NE3       30.02S
DOTHAN         CLOUDY    71  69  93 N5        30.05S
PANAMA CITY    CLOUDY    73  70  90 CALM      29.98S

$$





USA.gov is the U.S. government's official web portal to all federal, state and local government web resources and services.